Wind_Speed
31 30 31 32 32 31 31 32 32 33 30 23 21 18 16 19 13 12 11 17 24 23 21 15 10 14 14 14 9 7 7 8 5 3 2 3 1 1 1 0 2 5 3 5 11 12 14
30 29 30 31 32 30 31 33 31 30 27 25 23 24 24 17 15 13 15 26 24 23 18 10 12 12 9 18 8 5 9 5 3 1 2 2 2 2 3 3 5 4 10 14 17 18 13
29 29 30 30 31 28 28 33 31 26 25 25 24 23 23 21 23 23 28 24 22 20 16 15 17 17 18 10 7 6 5 2 2 2 2 1 2 4 5 4 5 8 13 13 14 2 6
30 30 30 28 29 29 28 32 30 25 23 25 24 25 25 30 28 27 27 24 24 22 20 16 16 10 9 10 6 7 4 4 3 1 2 2 4 7 6 5 6 8 9 8 4 4 4
30 32 27 30 28 27 29 30 30 23 22 23 22 23 25 26 22 20 19 21 23 22 18 14 10 9 8 6 4 2 2 1 2 3 4 5 5 7 5 8 9 4 5 7 8 6 3
29 30 30 29 28 28 29 31 30 25 22 21 23 28 29 25 25 26 27 26 23 17 14 10 7 6 4 3 0 1 2 2 3 4 5 3 4 6 7 5 5 7 6 6 10 2 11
27 29 29 28 29 26 27 27 27 23 21 19 17 21 25 26 23 19 21 15 11 10 21 12 9 15 6 2 3 2 1 3 4 5 7 2 7 9 7 8 12 13 11 14 13 8 8
26 26 27 27 28 28 25 24 23 22 19 18 15 15 14 12 9 9 5 12 9 8 14 13 11 9 5 3 1 2 2 4 5 8 6 5 10 6 8 11 12 13 14 14 13 6 9
26 24 25 24 24 26 25 25 23 20 16 13 11 9 8 11 16 23 23 19 12 7 2 7 8 7 4 5 3 3 3 5 9 9 6 8 8 7 9 10 12 12 10 8 12 14 16
23 23 21 22 21 20 23 23 22 20 16 12 10 9 8 10 8 11 12 12 14 6 2 7 5 3 4 3 2 2 3 4 4 6 6 7 1 7 9 10 8 12 1 11 10 8 5
22 20 19 19 18 18 17 18 19 18 17 14 11 9 7 8 7 4 5 11 16 2 2 5 2 4 4 3 5 3 3 4 8 7 4 1 6 6 9 7 8 7 5 8 8 8 9
21 19 17 16 15 13 13 13 12 13 12 11 10 9 8 7 2 2 8 14 6 2 2 2 3 3 5 2 1 5 2 2 5 5 6 11 6 5 6 8 5 9 6 9 9 6 4
21 18 17 15 13 12 10 9 9 9 8 8 6 4 3 6 7 12 12 6 2 2 1 2 2 5 6 5 2 3 2 4 4 3 2 5 4 2 5 7 6 4 5 4 4 4 0
18 19 15 16 13 10 10 7 6 6 8 7 6 6 8 10 11 9 5 2 3 1 2 2 4 8 4 6 2 5 4 3 3 5 5 3 2 2 3 3 5 5 3 3 3 2 2
15 17 17 14 15 13 10 10 10 12 14 13 10 11 9 10 7 1 2 3 3 1 4 6 7 6 1 1 3 5 2 3 3 6 4 3 2 1 2 3 4 1 3 2 3 5 4
16 15 17 15 14 13 13 12 13 14 15 13 9 7 8 9 5 2 1 2 2 3 1 2 5 3 5 6 5 3 3 2 2 2 3 2 5 3 1 3 6 5 3 2 3 3 4
19 15 15 16 15 15 13 14 13 14 15 14 5 3 5 8 3 2 2 1 2 4 3 3 3 5 5 5 4 4 3 3 1 3 3 3 2 1 2 4 2 2 2 2 2 4 3
19 17 12 15 16 15 16 15 16 14 16 13 4 3 4 4 1 1 1 1 1 4 4 4 4 5 5 5 6 4 3 2 1 3 3 3 4 4 2 3 2 3 3 3 3 3 2
16 18 15 12 17 16 16 16 16 16 14 15 6 4 4 2 2 1 2 1 3 4 4 2 4 4 2 3 5 5 3 1 2 1 4 2 3 4 5 3 3 5 6 3 1 3 6
16 16 17 14 14 17 16 15 16 16 14 12 3 2 2 1 1 3 2 4 3 4 4 4 3 3 3 5 5 5 5 1 3 3 0 2 3 6 4 3 1 5 8 9 5 3 4
19 16 16 16 16 16 17 15 14 15 13 10 3 1 1 2 1 3 2 1 5 4 5 5 4 8 3 4 5 4 3 5 4 2 2 2 4 7 13 15 13 12 11 10 10 11 5
18 17 18 18 16 17 18 17 13 13 13 9 4 3 2 3 2 4 4 5 7 4 5 5 7 2 6 5 3 7 4 3 3 4 3 2 3 4 4 3 7 14 16 16 17 17 18
18 18 18 19 18 18 17 19 15 11 10 5 5 6 4 2 3 3 4 4 4 3 7 5 5 5 9 10 8 9 9 9 5 3 3 2 2 3 4 3 6 8 13 19 10 10 13
17 17 17 18 18 17 18 18 19 14 11 10 11 6 4 4 6 6 4 6 8 11 5 3 7 5 1 3 6 7 9 11 12 11 8 4 2 2 5 5 3 2 1 1 14 13 15
19 18 18 18 18 17 18 18 20 19 15 14 12 7 4 6 9 13 14 10 8 8 7 11 9 5 3 2 4 5 4 3 7 9 10 8 3 3 3 5 12 7 6 6 7 6 12
22 19 19 20 21 20 17 18 20 20 19 18 16 13 9 7 5 16 5 10 7 7 3 6 7 6 4 3 3 3 3 2 3 4 3 5 7 3 1 4 5 3 8 6 4 5 9
25 27 26 23 23 23 22 18 18 21 23 20 21 17 13 9 17 11 7 5 5 5 4 2 3 4 5 3 4 4 4 1 4 4 6 4 5 9 8 5 9 5 11 9 2 2 10
33 32 33 31 27 26 26 24 21 20 23 26 26 24 21 11 24 22 19 13 7 6 5 5 3 5 5 5 4 4 4 2 4 5 5 9 7 5 5 6 9 16 10 6 3 5 8
34 35 33 33 32 31 30 28 26 24 24 27 29 29 28 23 15 17 16 21 28 19 9 11 3 5 8 5 3 3 4 3 5 5 6 6 10 3 8 6 2 28 10 20 3 4 6
Wind_Direction
19 20 26 27 27 26 30 32 36 43 47 56 59 62 62 90 84 93 82 140 132 141 122 113 122 111 87 89 87 118 105 127 116 78 72 84 231 342 285 17 276 260 288 286 276 275 271
18 21 27 31 29 25 34 42 37 41 48 52 58 64 70 73 75 84 99 129 129 134 144 131 113 94 92 82 80 99 104 95 114 99 72 56 67 358 297 271 269 331 293 286 280 276 272
20 24 26 33 33 31 36 43 40 45 54 55 61 66 72 70 79 87 108 115 116 115 117 110 110 96 86 89 96 95 82 98 77 97 56 360 356 324 315 299 320 286 289 288 266 279 269
25 24 26 33 35 35 37 44 43 43 62 65 65 65 84 79 87 98 100 97 105 113 115 111 101 83 86 99 90 78 86 60 72 62 45 340 308 296 278 297 271 259 269 281 133 213 177
28 26 30 35 39 37 46 47 43 54 59 66 80 71 85 94 101 105 105 94 96 108 108 106 70 96 95 98 98 81 53 33 346 323 307 305 311 285 273 270 280 225 270 251 285 221 267
30 31 30 37 41 50 51 53 53 60 62 67 78 88 103 104 103 103 98 93 82 90 90 53 57 91 97 109 222 246 302 351 328 314 295 270 262 273 238 245 275 285 266 287 273 255 245
28 33 33 39 42 49 57 58 62 57 54 70 78 94 97 99 98 94 104 97 102 62 60 78 74 91 102 75 48 20 307 311 309 284 281 274 288 266 299 286 291 292 279 271 265 270 308
26 32 36 37 47 50 54 62 61 61 60 64 80 85 91 85 73 107 104 89 89 118 76 61 71 75 70 62 39 28 4 311 306 294 300 266 257 344 323 288 282 283 276 272 273 286 263
25 28 36 39 42 51 55 59 65 66 67 63 62 63 68 74 93 97 88 75 61 54 77 45 33 29 9 11 11 6 333 319 290 289 273 288 296 322 283 294 283 264 283 304 302 307 278
18 26 32 41 41 47 55 59 66 69 65 64 56 47 65 84 63 82 48 40 22 22 92 17 15 31 1 310 245 303 292 297 262 298 314 273 29 296 293 303 319 289 252 300 273 275 266
10 22 28 33 43 43 49 55 61 65 71 69 64 54 58 90 120 88 33 354 344 42 90 344 353 319 312 296 324 171 273 269 282 302 268 7 281 297 294 321 311 290 318 265 261 260 290
9 6 21 29 33 42 41 47 46 52 55 59 73 79 101 118 133 316 325 332 345 312 51 354 303 319 329 206 244 308 283 273 272 284 239 274 294 263 312 310 280 310 264 220 228 228 247
359 2 2 19 24 25 32 36 39 35 30 26 21 16 325 286 281 297 305 333 349 22 171 301 313 322 322 325 251 334 321 35 27 318 312 290 204 255 285 306 206 291 287 187 179 208 155
355 354 354 355 10 11 7 7 357 353 343 324 323 353 342 309 298 304 322 257 36 348 265 308 292 299 274 346 173 328 302 15 84 332 289 326 190 330 11 334 304 320 334 332 342 1 21
352 348 347 346 348 357 352 347 341 332 331 327 293 285 315 338 338 10 242 62 37 18 346 313 291 268 188 186 287 319 26 7 358 353 326 323 201 153 253 290 302 87 249 54 300 207 258
338 345 339 339 335 341 344 340 339 342 342 338 324 282 280 332 5 79 25 163 154 163 274 270 313 330 321 357 312 324 335 96 4 328 314 32 292 178 159 257 221 280 359 239 212 291 283
326 334 338 333 330 325 337 337 336 341 348 347 327 285 279 335 334 254 120 107 174 192 204 218 299 291 293 314 309 306 336 141 31 340 278 314 253 146 227 213 326 216 232 220 271 287 301
317 321 328 331 328 321 322 334 334 339 344 346 323 268 305 356 262 336 292 175 177 211 212 251 272 272 275 313 289 279 277 257 101 335 293 31 300 267 314 116 277 258 298 301 277 153 233
312 310 316 323 325 324 313 321 334 337 344 348 313 276 296 348 281 212 162 220 264 216 232 243 263 238 314 288 292 264 277 153 189 250 343 54 228 293 176 185 205 249 201 243 223 294 246
307 301 303 312 316 320 316 310 322 334 338 339 329 297 292 11 98 291 242 229 232 220 239 217 277 259 275 269 217 302 285 251 222 248 115 273 261 241 283 341 327 234 225 217 211 241 298
306 302 298 303 308 310 313 307 308 322 331 335 287 232 228 294 159 280 240 288 233 239 231 231 224 231 259 284 273 235 276 276 214 204 213 254 265 290 270 276 270 252 256 226 214 236 245
301 295 292 291 296 300 306 308 301 307 324 314 296 287 276 265 246 242 188 216 228 202 215 217 239 246 214 242 277 298 319 254 306 178 250 186 277 332 276 297 269 256 257 243 245 244 255
298 295 288 288 288 292 297 301 298 289 305 295 288 292 289 203 226 233 229 238 235 220 215 239 241 261 237 252 267 273 263 265 264 266 262 239 293 317 277 330 311 266 240 224 220 222 218
294 294 289 288 288 287 290 294 299 284 272 278 281 278 270 268 229 230 248 235 235 223 276 237 223 251 294 284 289 262 248 252 242 226 227 248 219 271 286 301 266 93 109 201 224 251 232
290 283 282 285 286 286 287 288 291 295 267 264 269 249 252 273 262 265 249 247 261 245 245 251 237 238 256 301 286 286 196 227 224 227 211 215 262 267 278 281 285 230 203 185 190 278 228
283 278 275 276 279 282 279 282 286 288 286 258 258 253 241 298 251 261 255 231 238 233 230 226 243 228 194 263 252 267 275 46 195 191 286 202 240 248 279 271 272 82 144 136 141 269 187
275 284 281 274 271 274 276 273 275 282 283 272 260 250 232 247 274 255 238 235 198 221 277 132 177 183 197 223 243 239 250 346 240 217 178 194 214 222 223 253 276 116 148 147 212 63 173
272 276 280 279 271 268 269 272 269 268 275 275 269 256 238 231 258 265 261 249 227 220 240 148 152 200 183 226 236 243 244 185 271 232 184 196 192 209 200 214 263 143 139 210 85 147 186
262 268 270 271 274 273 268 263 265 267 266 272 260 262 252 234 247 255 256 250 240 237 227 197 247 165 216 225 234 290 239 210 253 267 197 234 219 277 219 227 78 187 219 220 283 259 221
Height
1532 1524 1520 1515 1510 1502 1493 1493 1488 1483 1477 1474 1472 1471 1469 1469 1470 1470 1469 1471 1477 1483 1486 1490 1493 1494 1496 1500 1506 1505 1505 1506 1508 1510 1510 1508 1509 1506 1503 1504 1506 1505 1502 1504 1504 1503 1502
1534 1527 1522 1518 1512 1505 1498 1496 1493 1487 1483 1480 1478 1475 1474 1474 1473 1473 1472 1478 1482 1486 1491 1493 1495 1498 1499 1502 1507 1508 1508 1509 1510 1512 1510 1510 1510 1508 1506 1506 1507 1505 1505 1502 1501 1498 1497
1537 1530 1525 1520 1514 1507 1501 1499 1497 1493 1489 1487 1484 1481 1480 1479 1478 1478 1481 1485 1488 1491 1495 1497 1499 1504 1501 1508 1509 1510 1510 1512 1511 1513 1511 1511 1510 1509 1508 1504 1506 1505 1502 1496 1493 1493 1493
1540 1533 1528 1523 1519 1514 1507 1503 1500 1499 1496 1493 1491 1489 1487 1487 1486 1488 1489 1492 1493 1495 1497 1500 1501 1504 1508 1509 1512 1513 1514 1513 1512 1512 1511 1510 1509 1509 1507 1506 1503 1500 1497 1498 1490 1493 1491
1543 1537 1531 1526 1523 1518 1512 1507 1505 1503 1503 1500 1497 1494 1494 1494 1495 1496 1496 1498 1498 1500 1502 1503 1505 1506 1512 1513 1515 1514 1514 1514 1513 1512 1510 1509 1510 1507 1505 1502 1495 1495 1495 1498 1493 1489 1489
1547 1541 1535 1531 1526 1522 1518 1514 1511 1510 1508 1506 1504 1502 1500 1500 1500 1500 1500 1501 1503 1505 1505 1505 1507 1509 1514 1516 1514 1513 1513 1513 1513 1511 1510 1509 1509 1505 1501 1503 1505 1497 1498 1493 1495 1490 1488
1549 1545 1540 1535 1531 1528 1523 1519 1516 1517 1517 1514 1512 1510 1509 1509 1509 1508 1505 1504 1509 1512 1510 1511 1512 1511 1514 1515 1514 1514 1513 1513 1513 1512 1507 1505 1507 1498 1495 1495 1495 1492 1494 1492 1483 1481 1486
1553 1548 1544 1540 1535 1532 1528 1524 1523 1522 1521 1520 1518 1517 1516 1515 1512 1510 1509 1509 1513 1517 1518 1518 1517 1515 1516 1515 1516 1516 1515 1515 1512 1507 1506 1508 1503 1495 1498 1497 1495 1493 1489 1485 1478 1480 1483
1556 1551 1547 1544 1540 1536 1532 1530 1527 1526 1525 1525 1525 1523 1520 1518 1517 1515 1513 1515 1517 1516 1516 1521 1520 1519 1519 1519 1517 1516 1517 1515 1511 1507 1504 1504 1497 1499 1497 1493 1490 1486 1487 1486 1487 1479 1477
1559 1555 1550 1547 1544 1540 1537 1534 1532 1530 1529 1527 1526 1526 1526 1524 1525 1521 1521 1519 1519 1517 1516 1522 1520 1520 1520 1518 1517 1517 1516 1517 1510 1508 1506 1501 1498 1500 1496 1492 1490 1490 1490 1493 1487 1483 1469
1560 1557 1553 1550 1546 1545 1541 1538 1536 1534 1530 1529 1528 1528 1526 1525 1526 1524 1525 1522 1520 1519 1512 1522 1520 1519 1517 1517 1517 1514 1514 1514 1510 1506 1509 1499 1499 1498 1496 1494 1493 1490 1492 1492 1486 1480 1473
1562 1559 1555 1552 1548 1546 1544 1541 1540 1537 1534 1532 1530 1529 1528 1527 1526 1526 1524 1522 1521 1524 1520 1522 1520 1518 1515 1514 1513 1513 1512 1512 1511 1508 1504 1500 1501 1500 1494 1494 1493 1490 1489 1485 1482 1477 1481
1563 1561 1557 1554 1550 1547 1545 1543 1541 1539 1537 1535 1532 1530 1529 1528 1527 1524 1523 1522 1528 1518 1526 1520 1518 1516 1514 1510 1510 1511 1509 1508 1507 1505 1499 1496 1494 1495 1496 1488 1489 1486 1484 1480 1482 1478 1463
1564 1561 1559 1556 1552 1549 1546 1544 1542 1539 1537 1536 1534 1531 1528 1526 1524 1524 1524 1524 1525 1523 1520 1519 1519 1515 1512 1511 1508 1509 1505 1503 1506 1505 1499 1498 1493 1492 1492 1493 1490 1486 1487 1489 1472 1460 1453
1564 1561 1558 1555 1552 1549 1546 1544 1542 1539 1537 1533 1531 1529 1528 1525 1523 1521 1525 1526 1522 1523 1527 1525 1516 1509 1502 1507 1512 1506 1504 1505 1508 1508 1503 1497 1488 1491 1493 1493 1494 1482 1487 1487 1490 1476 1466
1563 1561 1558 1554 1552 1549 1546 1544 1541 1538 1536 1532 1529 1527 1526 1524 1523 1523 1523 1522 1521 1522 1524 1524 1518 1517 1507 1505 1506 1502 1501 1507 1508 1510 1509 1502 1501 1488 1490 1492 1490 1489 1488 1486 1484 1473 1458
1561 1559 1557 1553 1550 1548 1545 1543 1540 1538 1535 1532 1529 1528 1525 1523 1523 1523 1526 1519 1522 1523 1524 1522 1516 1516 1512 1512 1508 1502 1501 1506 1509 1509 1509 1506 1504 1489 1491 1485 1485 1483 1481 1483 1487 1477 1465
1559 1557 1555 1552 1549 1546 1544 1541 1539 1537 1534 1532 1529 1527 1524 1523 1524 1523 1522 1521 1523 1522 1524 1522 1521 1517 1513 1512 1509 1504 1503 1504 1510 1510 1505 1506 1501 1495 1480 1489 1490 1488 1484 1486 1476 1472 1465
1557 1554 1552 1550 1548 1545 1543 1541 1538 1536 1534 1531 1530 1527 1523 1522 1521 1520 1523 1523 1524 1522 1521 1522 1518 1518 1517 1515 1514 1507 1505 1507 1509 1508 1506 1506 1502 1493 1480 1490 1491 1487 1481 1484 1490 1490 1469
1554 1551 1549 1548 1546 1543 1541 1539 1538 1536 1534 1532 1529 1526 1524 1522 1521 1520 1520 1518 1518 1520 1519 1518 1518 1519 1516 1511 1511 1508 1507 1508 1510 1509 1510 1511 1506 1497 1475 1477 1484 1482 1481 1481 1482 1484 1460
1550 1548 1546 1545 1544 1542 1540 1537 1536 1536 1534 1533 1529 1526 1525 1520 1520 1521 1521 1517 1516 1517 1520 1519 1513 1512 1512 1509 1504 1506 1505 1506 1508 1510 1510 1509 1507 1493 1486 1479 1478 1479 1477 1476 1484 1474 1473
1546 1545 1543 1541 1540 1539 1537 1535 1533 1534 1534 1533 1532 1529 1525 1523 1522 1521 1520 1513 1512 1511 1513 1512 1512 1507 1509 1508 1505 1507 1506 1504 1501 1507 1505 1507 1503 1506 1495 1478 1476 1472 1468 1467 1467 1465 1463
1540 1540 1538 1537 1535 1535 1534 1533 1531 1531 1531 1531 1529 1529 1529 1522 1521 1519 1510 1508 1511 1513 1509 1509 1509 1509 1506 1504 1505 1505 1505 1505 1506 1505 1502 1504 1502 1498 1475 1477 1481 1472 1453 1453 1451 1450 1451
1535 1535 1534 1533 1532 1531 1530 1528 1528 1527 1528 1529 1528 1528 1528 1517 1517 1512 1510 1511 1510 1511 1510 1510 1511 1511 1507 1505 1504 1502 1501 1503 1503 1502 1502 1499 1504 1499 1483 1478 1457 1440 1444 1442 1444 1440 1439
1531 1531 1530 1529 1527 1526 1526 1525 1524 1523 1523 1524 1524 1527 1525 1516 1511 1509 1510 1510 1509 1510 1511 1508 1507 1507 1507 1507 1501 1491 1490 1495 1494 1499 1499 1502 1497 1490 1484 1464 1438 1430 1441 1442 1442 1429 1425
1526 1525 1525 1524 1524 1522 1520 1521 1520 1519 1519 1518 1518 1520 1522 1520 1506 1508 1505 1505 1504 1504 1506 1505 1504 1505 1507 1505 1500 1493 1476 1477 1482 1498 1504 1500 1499 1496 1483 1475 1445 1423 1434 1438 1440 1431 1419
1516 1520 1519 1518 1517 1517 1516 1514 1515 1515 1514 1514 1513 1514 1517 1515 1506 1508 1506 1502 1503 1500 1500 1501 1503 1505 1507 1500 1496 1487 1475 1482 1471 1472 1494 1499 1493 1485 1475 1467 1436 1425 1435 1437 1434 1423 1420
1510 1509 1511 1511 1510 1509 1509 1508 1508 1508 1509 1509 1508 1509 1509 1506 1499 1501 1501 1502 1500 1499 1494 1500 1502 1501 1504 1500 1493 1481 1476 1472 1475 1462 1467 1469 1472 1467 1461 1460 1447 1429 1437 1431 1414 1416 1418
1499 1500 1500 1501 1502 1501 1500 1500 1500 1501 1502 1502 1501 1502 1503 1501 1493 1490 1491 1488 1492 1494 1493 1491 1488 1489 1493 1491 1488 1484 1478 1476 1468 1459 1461 1458 1445 1438 1441 1428 1421 1421 1415 1415 1415 1415 1415